GFSNE_500_rhum_081.txt.gz
RH
96 96 96 96 98 98 96 96 96 96 90 91 86 72 58 45 40 40 38 34 31 32 37 47 53 57 83 88 95 99 95 98 98 98 36 30 20 19
58 53 77 95 96 95 92 92 91 88 71 68 60 56 50 44 41 35 32 28 20 18 17 18 32 63 82 91 96 100 97 99 100 94 38 33 59 13
30 30 35 55 73 78 58 39 32 26 24 30 30 30 22 18 18 17 17 17 18 17 17 19 21 39 80 96 99 100 98 100 100 97 39 97 26 19
43 46 42 43 41 30 19 17 18 18 18 16 17 17 18 18 17 17 17 16 16 16 19 28 48 57 75 100 98 92 98 100 98 48 88 42 82 34
20 14 12 12 12 12 13 13 12 13 13 15 15 14 15 16 15 13 12 12 16 21 28 36 47 66 79 100 99 100 98 100 95 82 73 98 63 26
11 10 12 14 14 14 15 16 17 18 17 15 13 14 14 14 15 15 19 28 28 29 32 36 46 60 79 97 99 98 100 100 100 98 88 58 46 30
12 13 14 16 18 20 19 17 15 13 13 12 11 10 12 16 19 26 30 26 27 37 42 51 58 68 78 83 82 98 91 74 52 59 71 60 68 31
17 17 18 20 21 19 17 16 14 12 12 11 12 16 28 34 32 29 27 32 47 49 50 62 69 86 91 97 100 100 58 52 64 72 87 84 100 51
21 23 21 21 22 19 17 16 13 16 15 16 25 32 32 28 32 30 33 33 52 56 66 81 94 98 88 99 100 100 100 99 100 100 99 99 83 68
21 19 22 25 22 20 21 17 18 19 35 38 36 30 25 42 38 36 47 57 67 73 82 93 96 96 99 97 96 97 100 98 99 100 100 100 92 77
20 23 29 28 25 24 23 22 22 22 42 45 44 37 26 31 38 46 54 65 70 85 95 99 100 93 100 100 100 99 100 100 100 100 100 100 100 100
39 39 37 32 29 29 29 26 24 29 46 44 48 46 39 40 47 58 65 66 70 75 80 93 96 99 100 98 100 100 100 100 100 100 100 99 97 97
50 46 44 38 34 35 33 34 34 41 53 42 41 49 44 51 56 64 67 71 63 80 87 84 86 99 100 100 100 100 94 94 92 92 100 100 100 100
64 59 63 51 43 43 41 46 52 53 60 50 51 49 54 59 60 67 73 76 77 85 84 83 90 96 90 91 91 94 97 98 100 96 96 100 100 100
100 99 72 70 76 70 63 66 63 54 60 58 53 50 65 65 62 76 76 78 77 79 79 74 72 74 76 79 85 94 96 100 100 100 100 94 84 79
100 100 91 73 66 70 78 77 73 69 63 56 51 51 73 71 70 81 76 75 72 68 63 60 65 74 82 86 89 97 100 100 100 100 100 95 93 88
100 99 90 69 63 62 60 58 59 57 57 55 54 63 82 79 80 81 82 85 75 73 70 73 79 80 81 83 88 95 100 99 96 97 97 96 90 86
98 100 93 75 69 69 69 65 61 62 61 60 62 74 85 85 86 80 81 82 80 78 79 77 77 81 82 86 92 100 99 98 97 98 100 100 93 81
94 100 99 90 88 89 79 71 69 67 66 69 78 82 94 89 90 87 86 89 92 94 91 88 91 96 97 94 98 98 90 86 91 94 88 73 51 30
89 99 100 100 100 100 91 76 72 72 76 80 86 88 100 100 94 90 84 87 96 98 96 90 95 100 100 96 93 88 81 62 56 48 36 34 33 30
97 99 100 100 100 100 88 78 76 80 80 83 89 94 100 100 100 96 98 99 97 95 95 93 94 96 94 92 84 62 48 37 33 35 36 32 26 26
96 100 100 100 100 100 99 90 89 85 80 80 88 100 100 100 100 100 100 97 92 93 92 96 86 84 78 71 55 38 37 46 45 32 26 21 17 16
100 100 100 100 100 100 98 92 94 100 88 82 99 100 100 100 100 100 100 90 73 64 53 49 47 64 65 50 40 44 40 28 23 18 16 14 13 13

GFSNE_500_rhum_084.txt.gz
RH
96 96 95 96 94 94 87 94 96 97 98 95 83 75 63 60 45 38 36 32 30 25 21 16 15 15 15 16 16 18 46 77 100 100 99 97 100 98
97 94 89 88 81 66 64 54 58 81 79 71 65 46 25 28 30 22 16 12 12 14 15 16 16 16 16 15 16 17 23 32 84 100 98 99 98 86
83 56 52 58 55 43 35 29 30 29 26 23 17 14 12 13 12 12 12 11 13 14 14 12 11 11 19 26 25 28 29 63 100 100 100 100 98 87
40 39 44 36 20 21 22 22 22 18 16 13 13 13 14 13 13 12 11 9 8 10 13 13 16 22 29 30 42 47 61 85 100 98 100 100 99 86
29 26 18 15 15 14 14 13 12 13 13 12 14 14 12 10 9 8 8 8 10 12 17 20 28 29 33 35 39 60 75 92 88 96 100 100 97 97
18 17 15 14 13 12 12 12 12 12 14 15 14 11 11 10 9 7 8 12 16 22 22 25 25 31 39 42 52 55 76 85 83 94 98 99 87 58
20 22 24 17 13 13 13 14 14 14 17 15 12 12 10 10 9 9 17 24 23 24 23 24 31 44 46 55 58 60 77 81 93 100 100 100 96 98
31 23 19 17 16 15 16 17 18 21 18 14 14 13 10 11 11 16 24 23 22 20 22 30 32 49 56 61 76 83 84 76 100 97 93 98 94 87
45 34 21 20 21 22 20 19 21 22 21 17 16 14 14 12 14 18 26 23 26 27 39 38 50 56 70 87 88 81 72 95 97 69 70 94 97 98
50 42 25 21 32 28 25 20 20 22 24 21 18 18 16 16 24 36 30 26 29 35 48 55 59 63 86 96 94 100 100 100 99 97 96 100 100 100
47 34 23 20 26 29 26 22 20 24 26 24 20 22 30 37 31 48 40 30 23 44 55 58 62 72 81 85 97 96 95 100 98 100 100 98 100 100
78 53 52 43 41 26 24 21 25 31 29 26 23 25 31 48 41 44 40 33 41 43 59 72 63 79 86 84 94 100 100 100 94 100 100 100 100 100
90 93 80 74 65 54 48 42 41 38 34 31 28 28 41 56 40 42 46 41 38 58 68 61 65 84 84 80 86 99 95 95 94 100 94 92 100 100
74 99 95 96 88 73 63 58 54 49 43 41 38 44 53 59 47 50 57 54 50 66 73 67 76 79 74 78 87 91 87 80 83 95 98 100 100 99
72 75 90 87 98 96 93 79 67 68 64 70 57 57 57 62 50 51 57 66 61 75 82 80 80 75 79 82 84 85 80 82 85 88 94 100 96 91
55 68 84 93 71 91 96 97 100 93 83 90 81 76 74 68 54 60 78 75 68 77 87 86 79 75 74 83 82 84 86 85 84 94 100 100 100 100
68 64 63 51 75 79 100 100 100 98 94 92 82 81 73 64 62 67 84 85 77 81 91 81 74 69 70 85 86 83 88 92 100 100 98 95 94 94
65 77 64 54 76 83 96 100 100 99 92 72 68 67 65 64 69 75 88 94 84 84 89 77 75 74 76 80 80 82 86 95 100 100 96 89 82 83
42 90 76 67 98 100 96 99 100 100 100 76 68 72 71 72 74 87 98 100 88 82 89 92 90 89 90 91 95 89 90 97 100 100 97 88 82 82
49 56 97 96 100 100 98 100 100 100 98 87 83 79 79 75 78 96 100 100 100 99 100 97 92 97 99 90 93 94 99 100 100 95 88 71 59 50
66 50 99 100 100 100 86 100 100 100 99 99 100 85 84 81 88 96 100 100 100 100 100 98 95 100 93 94 94 97 100 95 90 80 63 44 34 34
89 73 83 96 100 99 86 97 100 99 100 100 100 86 86 87 91 96 100 100 100 100 100 100 100 100 98 98 92 83 72 65 66 52 38 41 45 40
88 84 68 98 100 100 100 100 100 100 100 100 100 95 88 86 90 95 100 100 100 100 100 100 100 99 78 75 59 40 51 56 45 42 43 33 27 23

GFSNE_500_rhum_087.txt.gz
RH
100 96 99 99 95 95 94 96 96 95 90 86 84 97 96 96 90 52 35 20 20 18 14 10 9 9 10 10 11 11 11 13 15 20 21 36 64 95
98 99 99 97 97 96 96 95 94 92 91 82 66 58 42 34 29 24 19 16 13 11 10 9 9 10 9 9 11 12 15 19 27 27 43 85 89 98
90 84 98 95 84 84 79 88 72 65 51 42 36 28 22 22 18 16 12 11 11 9 8 8 8 9 10 11 13 17 22 24 22 37 50 77 90 98
92 95 96 94 88 67 54 45 43 35 28 22 17 14 14 13 12 12 13 11 9 9 8 7 7 8 10 16 19 29 30 31 32 43 62 93 86 95
50 47 63 49 52 47 46 35 27 18 15 14 12 13 13 13 14 13 10 11 10 8 7 7 9 17 20 25 29 28 35 40 46 57 65 74 73 75
35 29 27 24 28 35 30 22 20 16 12 12 12 13 16 18 15 12 12 9 7 7 8 13 17 20 20 23 30 38 45 47 54 59 67 66 82 86
34 31 29 25 23 20 21 27 24 15 12 13 13 15 18 18 15 14 12 9 8 8 12 18 19 19 19 25 25 38 47 58 65 69 72 72 92 100
44 50 48 43 45 42 27 31 25 20 17 15 16 19 20 18 15 15 13 11 10 11 13 21 18 19 26 29 41 54 56 74 78 79 87 89 96 100
44 46 44 51 53 57 47 35 24 22 20 19 20 21 21 20 17 17 15 14 13 13 28 27 24 29 36 42 51 59 74 79 79 76 81 96 93 100
38 52 54 54 53 48 46 42 36 26 27 27 24 24 21 23 21 20 17 15 19 32 40 34 27 44 52 54 59 65 64 73 82 99 100 95 88 90
13 28 39 51 70 65 52 40 38 31 35 33 30 26 25 26 24 22 19 19 32 41 39 34 38 56 59 58 61 73 73 90 95 98 100 100 96 99
9 14 23 58 70 74 66 52 41 32 27 34 38 30 26 32 28 24 22 32 38 40 35 35 45 57 62 48 61 79 94 100 98 96 100 100 100 100
9 11 25 45 56 77 78 74 66 50 48 44 35 34 43 40 34 30 32 43 44 41 44 44 50 57 62 62 72 80 90 94 92 93 97 88 86 93
16 13 12 16 24 53 66 96 94 84 73 66 64 61 59 48 44 52 50 56 52 47 51 58 56 63 72 66 77 86 86 92 88 83 76 83 90 98
21 19 16 12 12 13 30 74 93 80 99 85 88 87 76 66 62 76 69 74 57 55 61 71 68 71 80 75 77 87 96 86 81 73 81 85 89 94
24 21 21 16 16 21 15 29 83 100 100 100 95 98 96 89 80 98 78 75 66 64 67 80 76 83 84 86 82 86 84 80 80 84 85 87 89 97
28 23 21 22 23 33 39 24 61 96 98 100 99 99 100 100 100 100 95 83 72 66 73 93 86 84 83 83 83 84 80 78 81 86 87 90 96 99
33 27 24 23 26 34 54 61 50 77 100 100 100 100 100 100 100 100 95 80 68 71 84 100 86 87 90 85 85 88 89 82 86 96 94 96 100 99
47 38 33 36 35 35 57 72 90 82 100 100 100 100 100 100 99 99 89 73 71 74 87 100 93 89 93 86 88 83 85 87 89 94 96 97 100 98
63 62 49 54 54 53 72 80 100 82 100 100 100 100 100 100 100 99 84 75 73 78 86 100 99 88 91 100 98 92 96 100 100 100 100 97 94 94
65 71 83 85 88 100 100 99 100 73 100 100 100 100 100 100 100 100 90 80 79 87 97 100 96 94 100 100 97 97 100 100 100 100 100 93 86 84
56 72 85 99 100 100 100 100 94 87 100 100 100 100 100 100 100 100 94 84 87 94 91 95 100 100 99 100 98 100 100 100 100 100 98 83 67 68
40 60 76 93 100 100 100 100 100 84 100 100 99 100 100 100 100 100 97 90 91 91 89 99 100 100 100 100 100 100 100 100 100 99 74 59 61 48

GFSNE_500_rhum_090.txt.gz
RH
95 100 94 83 98 90 96 89 94 97 95 90 97 96 88 83 90 94 89 92 84 73 40 25 20 16 14 11 8 7 7 8 10 10 11 15 18 23
99 100 100 100 98 98 95 97 96 97 96 96 96 96 94 92 90 74 61 53 44 34 24 18 16 12 8 7 7 5 6 8 11 14 15 17 16 22
98 100 96 95 95 98 97 97 97 97 95 96 95 94 90 75 56 38 26 19 20 18 15 12 10 7 7 6 5 6 8 11 18 23 23 22 21 33
97 97 94 92 92 92 98 94 93 90 84 69 66 59 56 40 26 16 14 15 15 13 13 9 9 9 6 6 6 9 16 20 23 24 21 24 32 42
80 79 83 82 88 93 97 82 71 74 62 59 48 36 26 15 15 15 14 13 14 14 11 11 8 7 7 8 10 12 12 16 19 20 30 38 40 42
55 65 76 70 67 54 99 52 50 44 44 39 31 26 21 14 13 14 13 13 15 13 12 11 9 9 10 9 11 13 12 14 18 23 41 51 47 49
51 48 46 45 44 50 90 55 37 36 42 55 48 33 24 15 14 15 16 18 17 14 14 11 10 12 14 16 17 15 14 19 25 37 52 52 56 60
50 46 41 40 38 41 36 42 41 38 41 30 36 53 35 22 20 18 22 22 19 16 15 14 12 14 19 21 24 17 23 31 31 48 68 75 69 78
33 42 46 48 49 48 48 94 53 54 64 59 61 50 30 26 24 24 28 26 22 19 18 16 14 14 16 25 25 20 33 43 52 59 71 76 80 79
16 24 30 40 48 50 49 52 53 55 100 85 57 50 38 30 32 27 28 28 26 24 21 18 15 15 20 27 25 30 39 51 58 66 66 84 92 97
6 6 8 14 25 36 36 51 59 61 76 65 72 63 46 40 36 38 32 29 29 28 25 21 17 19 22 26 30 38 46 47 63 65 78 85 97 96
9 7 7 8 13 17 25 28 30 61 73 69 66 50 44 38 40 42 39 32 31 34 28 24 20 21 28 34 34 45 48 50 68 70 88 94 100 100
20 18 15 12 10 9 9 12 31 55 54 68 73 67 57 48 38 34 40 39 37 40 34 29 29 30 34 40 38 49 46 61 71 76 81 88 98 100
30 28 24 22 18 17 12 10 16 19 29 60 82 90 82 74 64 55 42 41 50 46 44 43 51 39 39 44 42 56 56 63 75 74 71 88 96 93
44 40 34 30 25 22 18 15 13 12 22 40 84 100 100 86 85 77 69 60 58 54 62 71 62 55 46 48 51 67 66 63 66 72 77 87 89 87
38 51 53 49 43 38 28 20 16 14 13 28 50 92 85 95 100 96 82 74 72 77 82 91 75 64 56 57 64 76 70 67 77 87 86 84 84 87
24 20 25 34 35 40 40 32 24 21 18 22 49 81 76 97 100 100 100 96 97 100 95 98 84 75 63 77 71 77 72 65 66 72 77 80 80 80
31 44 41 39 35 32 30 27 27 23 29 42 71 96 89 99 100 100 100 100 100 99 100 100 97 81 70 90 86 86 77 68 64 69 78 81 81 88
19 30 44 52 49 46 41 34 31 27 32 57 81 81 99 95 84 100 100 100 100 100 100 100 99 87 78 100 93 93 84 74 74 76 76 82 93 98
24 22 33 43 56 66 84 91 84 68 100 100 85 80 90 100 98 93 98 100 100 100 98 99 100 97 88 96 100 92 85 78 78 81 85 82 94 99
30 26 30 38 54 66 75 100 100 98 100 100 99 86 85 100 100 100 91 100 100 100 100 100 98 79 87 100 100 88 90 93 96 90 85 90 96 99
40 30 28 38 49 61 71 91 100 100 100 100 100 100 83 99 100 100 88 95 100 100 100 94 87 88 100 100 96 100 97 92 99 97 93 94 96 99
44 42 30 37 46 56 65 83 100 100 100 100 98 100 96 100 96 100 94 100 100 100 100 96 96 98 100 100 100 100 100 100 100 100 97 97 97 99

GFSNE_500_rhum_093.txt.gz
RH
97 97 97 97 98 95 89 92 96 79 87 73 78 92 97 94 97 100 94 83 91 84 70 71 64 54 40 26 32 36 14 8 6 5 5 5 8 12
96 97 97 97 97 95 94 98 97 98 95 94 99 98 97 98 96 95 91 85 82 75 59 42 36 38 34 26 21 12 8 6 5 5 6 10 16 20
95 96 98 98 98 97 97 94 98 94 97 84 96 99 98 96 98 97 96 94 88 70 53 42 22 18 16 13 11 8 8 6 6 5 8 12 16 21
97 98 98 96 97 100 95 98 98 97 98 98 96 97 96 95 92 94 89 76 54 43 26 16 16 14 13 11 9 8 7 6 7 8 9 10 14 17
94 95 95 94 96 98 99 99 100 95 99 97 96 80 78 72 70 62 50 39 25 15 14 15 13 13 13 10 10 8 8 7 7 8 11 11 13 15
94 95 87 77 84 94 96 96 96 98 98 97 90 83 77 60 57 47 34 26 18 14 15 14 15 16 12 12 11 9 9 8 8 9 13 12 13 19
82 92 87 84 75 71 80 85 94 96 99 97 98 75 94 95 71 57 45 33 22 18 17 16 17 16 14 14 13 10 10 10 9 14 14 19 18 23
33 42 55 69 70 58 56 54 66 76 83 100 100 98 71 87 100 71 55 48 31 24 19 19 21 20 17 16 15 12 12 11 12 18 16 27 23 23
26 30 31 36 48 54 52 45 38 41 39 53 66 48 58 55 46 51 54 51 39 36 26 25 28 24 21 19 17 15 14 12 14 17 24 31 30 31
10 18 27 35 43 48 50 50 50 50 48 80 61 89 96 74 50 67 86 59 37 33 34 28 29 28 25 22 20 19 18 15 16 19 25 35 42 49
8 9 12 19 28 33 37 48 52 55 60 61 58 60 99 100 100 99 86 66 55 45 40 37 33 29 28 26 24 25 25 19 18 22 30 37 50 65
13 13 12 10 11 15 25 37 44 54 58 66 69 66 60 55 83 100 99 82 73 50 44 46 41 34 32 30 28 31 30 27 22 26 32 41 67 77
32 28 24 21 16 15 12 14 23 44 49 51 54 63 79 80 77 71 69 68 62 56 43 37 36 37 36 37 35 38 41 32 28 31 41 54 78 79
63 59 48 37 32 26 22 17 14 13 16 21 27 33 56 86 96 86 71 66 68 62 56 48 34 32 36 40 48 47 49 40 34 43 52 63 76 68
52 62 63 60 52 46 34 26 22 19 16 12 11 16 36 68 63 64 66 69 82 78 73 67 49 42 46 51 52 55 55 44 45 54 54 66 66 64
20 36 59 56 56 51 44 35 32 28 23 21 16 14 13 21 33 62 78 86 83 90 88 82 72 66 67 67 73 67 60 58 60 64 61 68 75 77
22 17 32 47 56 51 50 50 40 36 31 28 23 21 18 18 23 38 64 75 72 95 100 91 87 87 78 80 79 77 71 65 75 79 67 73 82 85
42 27 18 27 42 48 50 48 53 44 37 34 31 26 22 20 18 24 37 52 100 98 94 87 100 100 100 99 94 93 81 80 85 82 74 72 73 79
52 47 28 20 20 35 48 57 50 56 62 48 45 35 29 25 26 26 29 34 77 99 100 100 100 100 100 100 100 98 89 88 94 92 80 69 73 84
51 60 47 28 21 20 31 49 64 66 64 65 72 67 53 44 37 35 36 54 84 99 100 100 99 100 100 99 98 96 83 91 100 100 90 77 79 86
56 60 57 47 32 24 22 30 43 56 69 80 90 100 97 95 96 56 73 100 100 83 96 100 100 89 96 96 100 100 92 92 100 100 91 83 85 87
52 61 58 54 45 33 27 28 34 43 58 65 79 100 100 95 88 100 78 84 79 96 99 100 98 100 88 100 100 100 89 92 100 100 94 100 100 99
47 45 48 53 52 44 34 30 34 46 56 63 67 97 80 100 100 91 100 100 100 100 100 99 100 100 91 100 100 100 100 100 99 100 100 100 100 100

GFSNE_500_rhum_096.txt.gz
RH
97 97 97 96 96 98 98 98 98 86 86 97 96 87 85 91 89 94 98 97 98 98 99 100 93 90 96 76 56 44 37 30 29 15 10 6 5 5
98 96 97 97 97 98 98 97 95 92 88 87 96 88 96 92 98 95 97 97 96 98 98 99 94 85 61 52 49 32 27 20 16 11 7 6 5 6
94 96 96 97 98 98 97 96 98 97 91 88 96 97 96 93 85 97 99 97 95 94 94 94 91 87 73 52 34 24 18 13 10 8 6 6 6 7
97 96 96 97 96 96 96 97 98 98 97 96 97 97 96 96 96 100 99 97 99 99 98 94 77 56 38 27 14 14 12 10 8 8 7 7 7 9
96 97 97 97 96 96 97 94 97 98 98 95 98 97 98 98 100 100 98 98 96 91 75 61 51 40 24 13 13 12 12 10 9 10 9 8 10 10
79 81 79 93 96 97 96 98 96 96 98 96 96 98 97 98 98 96 97 97 89 84 70 49 31 20 14 14 13 13 13 12 12 11 10 10 14 9
27 38 64 61 60 89 89 97 95 94 97 98 98 98 98 99 96 98 97 92 71 62 57 54 40 31 19 14 14 15 15 14 14 13 13 14 16 9
9 8 10 23 41 45 60 90 96 94 93 96 96 100 98 98 99 99 98 100 90 93 100 95 64 44 29 18 16 19 19 17 16 15 15 17 16 11
18 15 12 12 14 21 36 44 47 65 86 94 88 90 98 99 100 96 99 97 94 58 52 47 48 42 34 24 20 21 23 21 20 17 16 15 15 14
21 27 15 10 18 25 38 41 47 56 53 55 76 86 89 59 92 88 90 94 95 96 66 65 69 50 34 30 28 25 26 25 24 20 17 16 17 17
6 8 19 29 20 10 16 30 45 54 64 63 65 55 47 52 72 82 98 80 100 100 99 95 93 68 51 41 37 33 28 28 26 23 21 19 20 21
5 12 10 13 38 23 14 11 21 40 56 68 75 70 100 79 100 100 100 96 100 98 100 99 99 87 82 56 44 41 37 32 29 28 27 26 24 27
8 9 39 59 47 31 22 19 16 16 27 47 61 70 78 82 76 98 88 100 76 93 94 84 79 74 62 57 54 44 38 35 32 32 32 31 32 36
13 12 12 56 71 62 44 37 27 22 21 19 20 36 55 72 91 96 90 88 73 65 61 63 66 62 55 58 56 41 37 37 39 39 37 38 40 46
14 16 18 16 57 74 70 58 45 36 29 24 20 16 16 24 45 58 66 75 81 76 73 72 69 61 50 58 58 49 40 50 53 52 51 46 50 59
40 25 12 19 18 37 64 70 62 49 39 32 27 23 20 18 18 19 32 45 49 52 54 71 71 64 71 71 69 61 55 66 77 61 54 54 64 69
51 41 20 14 20 23 28 54 72 68 53 41 33 28 25 23 21 18 18 21 19 34 42 58 65 80 72 84 79 75 71 83 90 72 71 72 80 78
57 44 25 14 13 28 29 25 46 74 80 65 45 34 32 30 26 24 21 19 16 20 31 38 51 70 83 89 90 87 92 94 100 93 93 79 88 88
69 45 28 16 14 29 40 35 24 38 72 89 80 57 39 34 31 28 26 26 19 17 24 29 42 73 95 100 99 92 97 100 100 100 100 90 86 93
85 52 34 22 21 45 61 53 36 24 30 60 89 91 72 47 53 31 27 26 25 22 26 35 54 98 100 98 87 98 100 100 100 100 100 99 96 86
100 69 45 26 30 54 65 58 47 32 26 27 52 85 98 85 87 45 34 33 36 30 27 61 99 99 79 83 95 100 100 100 100 100 100 100 100 92
100 86 56 34 38 53 64 55 46 38 32 29 29 42 77 100 98 79 53 40 41 55 55 100 100 96 99 100 100 99 98 100 100 100 100 100 100 99
100 98 70 53 47 48 63 56 45 40 36 33 30 30 39 66 95 100 100 100 61 62 66 94 86 100 92 100 100 96 100 100 100 100 100 100 100 100

GFSNE_500_rhum_099.txt.gz
RH
97 97 97 96 97 97 97 97 97 97 93 96 97 97 97 94 86 88 89 83 84 83 96 94 94 98 86 95 98 98 88 72 48 43 30 22 19 11
97 97 97 97 96 96 96 96 96 97 93 98 100 97 97 95 85 85 92 86 88 82 87 95 96 94 99 94 98 94 77 62 46 28 26 21 9 7
96 96 96 98 96 97 97 97 98 98 97 93 89 90 97 95 89 80 77 97 98 92 90 99 96 98 95 93 95 87 84 48 37 24 14 10 8 9
97 96 97 97 97 96 97 96 96 96 97 94 97 99 98 98 100 95 96 98 99 93 94 96 93 89 98 98 98 88 61 39 19 14 10 9 11 12
70 78 90 89 95 95 89 97 97 97 97 96 97 97 96 97 98 97 96 93 93 96 100 100 99 96 94 89 66 51 39 21 13 11 11 12 11 11
9 14 16 18 31 40 67 96 98 87 82 95 97 96 97 97 96 96 98 98 93 96 98 98 97 96 75 67 56 35 17 13 12 12 12 14 13 12
7 7 7 7 7 8 11 18 24 51 84 83 90 96 96 98 99 97 98 98 99 97 99 99 94 88 90 78 55 41 27 18 14 13 14 15 14 14
10 10 9 10 10 9 8 8 8 15 27 57 56 62 84 96 95 98 98 97 97 100 98 96 98 97 99 85 78 59 43 30 21 15 15 16 16 16
11 11 10 10 10 10 11 10 10 11 12 30 44 56 69 84 96 95 98 98 98 99 99 98 100 98 90 85 56 41 36 29 24 19 17 19 19 20
9 9 9 9 8 8 7 6 7 10 15 13 14 32 50 60 78 95 98 97 95 97 100 97 99 90 92 60 59 60 49 33 29 26 29 29 23 22
11 10 8 7 6 5 5 4 4 4 11 17 15 16 30 46 53 58 93 98 98 97 98 90 95 96 95 98 99 94 55 50 45 43 38 32 28 25
9 7 5 4 2 2 3 3 3 4 12 18 18 14 24 39 56 52 54 84 100 97 100 97 100 95 95 100 100 98 68 63 56 50 42 38 33 29
8 5 2 2 2 2 5 10 10 30 34 32 26 21 28 67 73 64 66 66 62 68 76 90 100 100 98 100 99 99 87 60 52 41 44 39 35 32
2 2 2 4 7 9 9 11 13 17 63 52 39 38 41 72 91 95 87 96 100 100 100 100 100 100 100 100 98 98 72 48 53 47 46 40 37 36
4 4 6 14 28 30 30 17 15 15 27 74 52 45 61 46 99 100 100 96 98 100 98 100 100 100 98 77 66 63 58 51 47 51 47 40 42 46
9 11 21 32 43 45 42 37 22 16 18 32 76 57 53 55 66 100 100 100 97 100 96 86 84 95 96 82 67 63 58 58 58 57 49 44 50 52
22 22 35 38 46 47 40 36 32 17 17 21 50 79 64 61 63 72 100 82 90 93 73 83 71 67 64 61 58 54 52 64 71 65 53 54 64 68
27 31 36 36 53 55 45 39 34 20 15 24 25 67 93 68 71 61 97 100 63 59 73 69 60 50 46 41 41 44 48 70 76 73 67 77 88 78
56 56 65 78 79 69 62 53 34 17 18 27 34 29 87 100 79 75 85 76 73 59 70 63 53 43 36 45 61 64 76 81 82 82 83 97 99 87
100 100 100 98 93 85 76 49 27 23 42 47 38 31 38 100 100 91 64 81 58 57 50 52 48 51 60 95 88 69 77 92 90 87 87 100 100 100
100 100 100 97 100 100 71 41 27 48 58 45 36 64 51 63 100 100 92 72 61 56 52 44 64 78 83 90 83 97 100 100 97 86 83 98 100 100
100 100 100 100 100 99 65 40 38 62 51 46 45 42 50 45 92 100 100 100 97 56 57 58 48 58 85 100 100 100 100 100 97 85 98 100 100 100
100 100 100 100 100 96 64 44 54 65 45 43 50 46 73 100 89 96 100 100 98 65 50 52 50 56 82 100 100 100 100 100 100 100 92 100 100 100

GFSNE_500_rhum_102.txt.gz
RH
100 94 93 96 96 96 97 96 96 95 96 97 96 97 95 97 95 96 97 100 96 97 93 93 90 85 87 95 98 95 88 75 79 92 100 66 42 23
95 96 95 97 97 96 96 96 96 97 93 96 96 96 96 96 96 97 97 97 94 95 89 86 84 86 83 93 100 98 95 85 88 93 88 62 27 21
97 96 97 97 96 98 98 98 98 97 94 98 97 97 96 97 96 91 87 89 93 95 83 79 73 74 97 100 99 93 86 92 92 90 85 41 26 15
96 97 97 97 97 97 97 97 97 96 97 96 98 98 97 94 96 94 88 91 86 91 82 79 88 97 98 96 92 93 93 98 96 95 55 37 22 15
28 55 78 94 94 99 98 96 98 98 94 53 34 67 94 98 98 97 96 92 97 96 92 97 97 100 100 96 94 98 99 95 97 77 49 31 14 11
8 8 8 8 10 11 10 14 21 26 82 63 61 88 98 97 86 77 84 96 98 94 89 93 77 82 74 85 99 100 98 97 74 52 40 19 12 12
9 9 9 9 9 9 10 10 9 9 8 8 8 10 20 41 75 91 86 100 97 96 97 98 97 94 90 91 98 99 97 78 64 39 20 14 13 13
12 10 10 11 10 10 10 11 11 10 10 10 9 9 9 8 10 11 32 57 93 98 100 98 93 97 97 100 100 96 84 70 72 60 38 24 19 16
20 19 18 16 15 14 14 13 12 12 11 10 9 8 8 8 9 8 9 14 34 57 100 98 96 94 99 98 98 97 96 96 84 62 43 30 23 21
33 34 32 33 31 27 22 19 16 14 12 11 9 7 6 6 6 6 9 10 9 18 24 89 96 96 96 98 98 98 97 92 73 55 43 43 38 33
50 47 41 38 35 35 31 30 30 26 20 14 10 8 7 5 4 3 5 8 9 12 20 24 77 96 98 95 99 97 99 96 70 58 60 51 35 44
55 53 47 43 40 38 36 34 30 31 27 20 14 9 6 4 2 2 6 8 16 16 16 41 66 100 95 100 96 97 98 97 90 83 75 54 54 43
52 53 50 46 42 39 38 36 33 31 22 14 7 4 2 2 2 4 17 17 25 32 36 56 92 100 100 97 100 97 98 97 98 99 84 67 58 47
56 52 47 36 27 24 23 19 13 10 7 4 3 2 3 4 7 18 59 100 79 86 95 92 74 73 88 100 100 100 100 100 99 98 95 72 48 39
30 21 13 6 4 4 3 3 4 4 4 4 4 5 5 8 14 42 89 100 100 100 100 100 100 100 100 100 98 99 100 100 99 98 99 86 55 43
3 4 4 4 7 11 14 16 12 10 13 18 19 17 16 11 13 19 61 97 100 99 100 94 94 98 93 80 97 94 100 100 100 95 74 61 49 46
8 10 13 20 24 22 21 20 16 25 34 37 33 28 23 17 19 21 65 58 93 100 100 100 100 100 100 100 100 100 100 100 99 90 76 65 52 45
12 18 45 81 88 54 29 22 22 32 36 39 38 31 23 17 24 37 66 66 59 100 100 100 100 99 100 100 100 100 100 99 98 94 73 61 50 45
20 36 52 84 97 100 91 52 33 34 37 47 45 38 28 17 26 60 77 88 100 100 100 100 100 100 100 100 100 100 100 99 100 89 74 61 61 61
57 75 86 98 100 100 100 100 98 88 78 66 57 48 33 17 31 86 100 98 100 100 100 100 100 100 100 100 100 100 100 97 78 79 78 80 77 72
77 91 100 99 100 100 100 100 100 99 92 80 62 43 26 19 36 99 100 100 95 100 100 100 100 100 99 98 100 100 96 98 100 100 100 96 88 80
79 92 100 100 100 100 100 100 100 100 96 61 38 27 23 38 44 100 100 100 100 91 100 100 100 100 60 87 100 100 100 100 100 100 100 100 99 92
96 96 98 100 100 100 100 100 100 96 64 42 31 40 50 46 85 100 100 100 100 100 100 92 75 69 69 82 100 100 100 100 100 100 100 100 100 100

GFSNE_500_rhum_108.txt.gz
RH
60 79 69 60 68 92 96 96 100 96 91 91 95 100 97 94 96 96 96 97 97 94 91 99 97 98 96 96 97 98 97 97 88 93 89 85 82 89
97 100 97 97 85 90 99 99 98 98 89 89 97 98 96 93 97 96 98 96 96 91 96 96 96 97 96 95 95 96 97 95 95 84 81 84 91 94
97 97 97 98 97 98 98 98 98 97 91 92 97 98 99 98 97 97 98 97 100 98 97 96 96 96 97 96 96 95 97 96 96 92 87 90 91 97
98 98 98 98 98 97 98 97 97 97 96 94 100 98 98 98 98 97 98 98 98 97 97 96 96 97 96 97 96 96 96 95 97 95 92 100 95 99
92 85 84 56 88 95 95 88 95 98 97 98 99 97 97 97 97 96 98 97 95 94 95 94 95 96 92 87 91 96 96 93 98 98 100 98 98 100
16 26 16 17 13 10 14 20 18 52 42 83 97 98 99 99 98 98 98 95 96 86 80 88 95 85 47 51 76 88 87 82 100 100 93 92 96 93
27 23 22 20 19 18 16 13 12 12 11 13 78 74 50 79 100 95 58 27 22 39 18 32 63 65 70 31 41 60 66 69 68 79 60 72 80 71
33 36 38 38 38 38 33 28 24 23 21 15 12 17 36 32 23 27 11 11 10 13 9 9 7 7 7 9 27 33 40 66 78 80 86 84 77 68
61 53 41 35 34 34 36 40 44 48 48 42 27 19 15 12 11 11 11 11 10 11 10 9 9 8 8 8 8 8 9 13 21 40 48 49 68 72
66 67 70 76 77 74 68 55 47 46 52 61 61 55 44 30 22 19 17 15 14 14 13 10 10 10 9 9 8 8 7 7 8 14 16 16 50 59
21 25 25 27 33 40 44 58 68 76 79 78 76 75 71 65 56 43 36 31 25 24 21 17 14 12 11 10 9 8 8 7 7 9 12 15 30 61
46 48 47 41 38 38 39 38 34 52 68 73 75 81 78 78 74 70 62 51 41 37 35 29 25 25 19 14 11 8 7 7 8 11 17 43 53 70
60 60 61 60 57 56 57 58 63 65 64 73 94 94 89 83 81 77 70 66 64 57 52 46 42 39 35 33 21 14 11 8 9 8 19 36 54 91
41 39 39 37 36 37 37 35 37 44 56 65 78 90 92 91 91 85 77 69 63 61 62 58 52 47 44 39 33 22 17 10 9 9 21 71 97 94
6 5 5 5 5 5 5 5 6 6 8 11 13 21 36 69 71 62 64 69 67 63 59 57 54 45 37 37 35 23 15 11 8 14 26 23 100 100
10 9 8 7 7 7 6 6 6 6 5 4 4 5 5 6 8 10 21 28 37 38 38 36 35 34 30 26 23 18 15 9 7 23 35 81 89 100
9 10 10 10 8 8 8 8 8 8 8 7 7 7 8 8 8 8 7 7 8 10 12 10 11 11 10 12 13 12 9 7 5 81 91 46 100 100
11 19 27 32 28 21 18 20 24 22 16 11 10 10 11 16 20 21 15 12 10 8 6 6 5 5 5 5 5 6 5 4 13 9 86 100 99 78
33 46 55 57 60 60 51 52 60 52 37 29 23 19 19 30 49 51 34 24 19 16 13 11 9 6 5 4 4 3 4 4 6 15 40 100 100 85
53 58 64 70 78 72 69 65 67 67 67 74 71 68 75 82 98 77 38 26 24 24 26 23 19 13 8 5 5 6 56 76 28 19 53 100 100 100
57 74 76 77 82 81 85 85 87 88 95 100 100 100 100 100 100 100 54 38 37 42 42 33 25 19 14 17 28 88 100 100 100 100 76 100 100 100
51 72 77 88 89 84 91 98 100 98 100 100 100 100 100 100 100 100 100 71 50 40 43 34 22 90 82 80 100 96 100 100 100 100 100 100 100 100
37 67 85 90 94 94 91 97 98 99 100 100 100 100 100 100 100 100 100 92 69 48 44 29 24 100 87 100 100 100 100 100 100 95 100 100 99 100

GFSNE_500_rhum_111.txt.gz
RH
94 100 60 97 95 81 78 88 93 62 61 90 69 85 88 99 95 78 99 99 100 95 100 92 98 98 91 94 100 97 96 97 97 97 97 94 95 93
92 90 66 97 97 90 81 86 87 57 88 84 96 100 98 95 97 98 95 100 97 96 98 96 98 96 93 89 92 99 96 96 97 97 97 97 97 94
94 88 90 98 98 98 98 98 98 98 98 88 100 98 97 99 100 97 98 97 96 97 97 97 97 96 89 86 87 94 96 97 96 96 97 97 98 97
70 96 95 98 98 98 98 98 98 98 98 99 98 98 97 97 96 97 97 98 97 99 100 98 98 95 94 100 95 94 95 97 96 96 96 96 95 98
21 18 20 62 53 85 96 97 96 98 96 98 96 97 99 97 98 98 97 96 98 98 98 97 97 96 99 96 98 99 98 98 96 96 97 98 96 98
23 23 24 24 22 20 35 42 29 46 40 66 80 91 92 97 99 98 98 98 97 96 97 98 98 97 97 96 96 96 97 97 96 96 98 97 95 96
48 32 30 32 32 28 25 24 22 17 15 13 20 28 33 66 66 87 98 98 98 98 98 97 98 96 98 97 98 94 95 96 92 98 97 93 96 94
57 62 68 66 49 35 32 35 36 29 25 22 20 14 18 22 14 56 81 83 98 98 98 94 84 84 71 96 95 91 78 97 98 96 90 88 96 82
25 18 40 52 58 64 70 71 51 37 38 41 39 32 24 21 16 13 50 52 59 80 97 81 46 26 41 60 85 65 47 64 69 58 62 76 71 69
28 25 26 35 39 38 45 63 82 84 74 58 42 46 46 47 41 28 18 20 58 77 77 80 58 15 11 15 20 27 16 16 39 37 34 32 25 44
49 55 51 57 66 68 58 46 55 56 58 66 77 74 66 47 47 46 50 44 22 14 17 16 24 17 10 11 11 12 11 9 9 8 7 7 7 8
69 67 68 74 73 75 70 56 49 70 63 45 43 44 50 66 74 68 53 53 58 54 28 16 13 13 12 12 12 12 11 10 9 8 8 7 6 6
10 9 8 10 12 18 27 43 51 63 65 66 64 56 47 41 39 41 55 68 68 70 78 60 32 23 19 16 16 15 13 12 11 10 9 8 7 7
15 14 11 10 9 7 6 5 6 13 28 34 38 40 49 59 56 47 39 32 38 62 74 85 71 57 43 32 26 22 20 16 14 13 11 10 8 7
27 23 21 17 14 11 9 8 7 6 5 6 9 14 16 21 30 44 56 54 47 40 62 84 84 86 74 62 49 40 33 28 21 17 15 13 11 11
31 29 27 20 12 7 7 8 7 7 7 8 7 7 7 7 8 9 13 25 49 60 61 66 86 90 87 82 74 64 53 44 37 25 20 16 18 18
38 40 29 19 12 16 24 29 31 25 15 10 8 8 8 8 8 7 7 7 7 16 34 61 74 76 89 90 84 78 70 62 55 39 31 25 18 20
56 41 31 22 24 43 49 50 54 52 41 28 21 16 13 11 10 10 9 8 7 6 5 8 21 56 76 76 86 85 74 69 63 55 43 35 28 20
54 35 35 29 36 58 63 63 65 63 59 53 53 53 38 33 24 19 14 11 10 9 8 7 7 6 17 48 62 65 67 64 60 56 47 38 26 18
45 35 37 34 48 64 76 77 70 77 79 78 73 70 68 68 61 42 32 22 22 20 14 12 10 8 5 6 9 22 44 43 43 37 32 27 22 14
40 34 39 38 51 75 82 84 76 86 95 100 100 99 99 100 100 100 100 92 90 94 64 42 25 16 10 8 6 6 7 11 11 14 14 12 9 7
38 33 38 44 46 54 82 93 93 92 96 96 100 100 100 100 100 100 100 100 100 100 76 43 31 24 18 16 12 10 8 6 5 5 5 6 6 6
37 34 37 42 52 71 74 68 96 97 96 100 100 100 100 100 100 100 100 100 100 100 57 37 36 38 34 31 24 18 13 8 7 6 6 5 5 5